FW4443 Weather Reports


Display with metric or nautical units.
time (UTC)temp
F
wind
direction
speed
MPH
gust
MPH
rain 1hr
in
rain 24hr
in
rain mn
in
humidity
%
barometer
mb
20260507095444 63 0 1.0 3.0 0.00 0.00 0.00 30 1017.4
20260507094825 63 0 2.0 3.0 0.00 0.00 0.00 30 1017.2
20260507094504 63 0 2.0 3.0 0.00 0.00 0.00 30 1017.1
20260507093847 63 0 1.0 3.0 0.00 0.00 0.00 31 1017.2
20260507093530 63 0 1.0 3.0 0.00 0.00 0.00 31 1017.2
20260507093205 63 0 1.0 3.0 0.00 0.00 0.00 31 1017.2
20260507092539 63 0 1.0 3.0 0.00 0.00 0.00 31 1017.2
20260507092220 63 0 0.0 2.0 0.00 0.00 0.00 32 1017.2
20260507091857 63 0 0.0 2.0 0.00 0.00 0.00 32 1017.3
20260507091534 63 0 0.0 0.0 0.00 0.00 0.00 33 1017.3
20260507091209 63 0 0.0 0.0 0.00 0.00 0.00 33 1017.2
20260507090851 63 0 0.0 3.0 0.00 0.00 0.00 34 1017.3
20260507090535 63 0 1.0 3.0 0.00 0.00 0.00 34 1017.2
20260507090219 63 0 1.0 3.0 0.00 0.00 0.00 35 1017.2
20260507085905 63 0 1.0 3.0 0.00 0.00 0.00 35 1017.2
20260507085549 63 0 1.0 3.0 0.00 0.00 0.00 35 1017.3
20260507085229 63 0 1.0 3.0 0.00 0.00 0.00 36 1017.3
20260507084903 64 0 1.0 3.0 0.00 0.00 0.00 36 1017.3
20260507084546 64 0 1.0 2.0 0.00 0.00 0.00 36 1017.4
20260507084229 64 0 1.0 2.0 0.00 0.00 0.00 35 1017.2
20260507083912 64 0 1.0 2.0 0.00 0.00 0.00 36 1017.3
20260507083250 64 0 1.0 3.0 0.00 0.00 0.00 36 1017.3
20260507082926 64 0 1.0 3.0 0.00 0.00 0.00 36 1017.3
20260507082605 64 0 1.0 3.0 0.00 0.00 0.00 36 1017.3
20260507082245 64 0 1.0 3.0 0.00 0.00 0.00 35 1017.2
20260507081927 65 0 1.0 3.0 0.00 0.00 0.00 35 1017.3
20260507081604 65 0 1.0 3.0 0.00 0.00 0.00 35 1017.3
20260507081246 65 0 1.0 2.0 0.00 0.00 0.00 35 1017.3
20260507080930 65 0 1.0 2.0 0.00 0.00 0.00 35 1017.2
20260507080308 65 0 0.0 1.0 0.00 0.00 0.00 35 1017.2
20260507075950 65 0 0.0 3.0 0.00 0.00 0.00 35 1017.2
20260507075325 65 0 0.0 3.0 0.00 0.00 0.00 36 1017.2
20260507074703 65 0 0.0 3.0 0.00 0.00 0.00 36 1017.2
20260507074344 66 0 0.0 3.0 0.00 0.00 0.00 37 1017.1
20260507074024 66 0 0.0 2.0 0.00 0.00 0.00 36 1017.1
20260507073704 66 0 0.0 0.0 0.00 0.00 0.00 37 1017.1
20260507073045 66 0 0.0 0.0 0.00 0.00 0.00 37 1017.1
20260507072721 66 0 0.0 0.0 0.00 0.00 0.00 37 1017.1
20260507072359 66 0 1.0 3.0 0.00 0.00 0.00 37 1017.1
20260507072039 66 0 1.0 3.0 0.00 0.00 0.00 37 1017.1
20260507071717 66 0 1.0 3.0 0.00 0.00 0.00 37 1017.1
20260507071354 66 0 1.0 3.0 0.00 0.00 0.00 37 1017.0
20260507071030 66 0 1.0 2.0 0.00 0.00 0.00 37 1017.0
20260507070709 66 0 1.0 3.0 0.00 0.00 0.00 37 1016.8
20260507070351 66 0 1.0 3.0 0.00 0.00 0.00 36 1016.8
20260507065733 66 0 1.0 3.0 0.00 0.00 0.00 35 1016.7
20260507065407 67 0 1.0 3.0 0.00 0.00 0.00 35 1016.7
20260507065049 67 0 1.0 3.0 0.00 0.00 0.00 35 1016.7
20260507064426 67 0 1.0 2.0 0.00 0.00 0.00 35 1016.7
20260507064106 67 0 1.0 2.0 0.00 0.00 0.00 34 1016.6
20260507063750 67 0 0.0 2.0 0.00 0.00 0.00 34 1016.5
20260507063435 67 0 0.0 1.0 0.00 0.00 0.00 34 1016.4
20260507063113 68 0 0.0 0.0 0.00 0.00 0.00 34 1016.4
20260507062747 68 0 0.0 0.0 0.00 0.00 0.00 34 1016.4
20260507062432 68 0 0.0 0.0 0.00 0.00 0.00 34 1016.3
20260507062116 68 0 0.0 0.0 0.00 0.00 0.00 33 1016.3
20260507061757 68 0 0.0 0.0 0.00 0.00 0.00 33 1016.2
20260507061440 68 0 0.0 0.0 0.00 0.00 0.00 33 1016.3
20260507060819 68 0 1.0 2.0 0.00 0.00 0.00 33 1016.1
20260507060457 68 0 1.0 2.0 0.00 0.00 0.00 32 1016.0
20260507060134 69 0 1.0 2.0 0.00 0.00 0.00 32 1015.9
20260507055809 69 0 0.0 2.0 0.00 0.00 0.00 32 1015.9
20260507055452 69 0 0.0 1.0 0.00 0.00 0.00 32 1015.9
20260507055134 69 0 0.0 0.0 0.00 0.00 0.00 32 1015.9
20260507054820 69 0 1.0 2.0 0.00 0.00 0.00 32 1015.8
20260507054505 69 0 1.0 2.0 0.00 0.00 0.00 32 1015.8
20260507054142 69 0 1.0 2.0 0.00 0.00 0.00 31 1015.8
20260507053820 69 0 1.0 1.0 0.00 0.00 0.00 31 1015.9
20260507053501 70 0 1.0 3.0 0.00 0.00 0.00 31 1015.8
20260507053138 70 0 0.0 3.0 0.00 0.00 0.00 31 1015.7
20260507052814 70 0 0.0 3.0 0.00 0.00 0.00 31 1015.6
20260507052154 70 0 1.0 3.0 0.00 0.00 0.00 30 1015.7
20260507051829 70 0 1.0 3.0 0.00 0.00 0.00 30 1015.6
20260507051506 70 0 1.0 3.0 0.00 0.00 0.00 30 1015.6
20260507051148 70 0 0.0 2.0 0.00 0.00 0.00 30 1015.6
20260507050523 71 0 1.0 2.0 0.00 0.00 0.00 30 1015.6
20260507050207 71 0 0.0 2.0 0.00 0.00 0.00 30 1015.6
20260507045844 71 0 0.0 3.0 0.00 0.00 0.00 29 1015.6
20260507045530 71 0 0.0 3.0 0.00 0.00 0.00 29 1015.6
20260507045210 71 0 1.0 3.0 0.00 0.00 0.00 29 1015.5
20260507044850 72 0 1.0 3.0 0.00 0.00 0.00 29 1015.5
20260507043924 72 0 1.0 3.0 0.00 0.00 0.00 28 1015.4
20260507043608 72 0 1.0 3.0 0.00 0.00 0.00 28 1015.3
20260507042947 73 0 0.0 2.0 0.00 0.00 0.00 28 1015.3
20260507042628 73 0 0.0 2.0 0.00 0.00 0.00 28 1015.3
20260507041706 73 0 0.0 1.0 0.00 0.00 0.00 28 1015.2
20260507041342 74 0 0.0 0.0 0.00 0.00 0.00 27 1015.2
20260507041017 74 0 0.0 0.0 0.00 0.00 0.00 27 1015.1
20260507040700 74 0 0.0 0.0 0.00 0.00 0.00 26 1015.1
20260507040343 74 0 0.0 0.0 0.00 0.00 0.00 26 1015.0
20260507040021 75 0 0.0 0.0 0.00 0.00 0.00 26 1015.0
20260507035357 75 0 0.0 0.0 0.00 0.00 0.00 25 1014.9
20260507035040 75 0 0.0 0.0 0.00 0.00 0.00 25 1014.9
20260507034724 76 0 0.0 0.0 0.00 0.00 0.00 24 1014.9
20260507034404 76 0 0.0 0.0 0.00 0.00 0.00 24 1014.9
20260507034042 76 0 0.0 0.0 0.00 0.00 0.00 24 1014.9
20260507033719 76 0 0.0 0.0 0.00 0.00 0.00 24 1014.8
20260507033404 77 0 0.0 0.0 0.00 0.00 0.00 23 1014.8
20260507033048 77 0 0.0 0.0 0.00 0.00 0.00 23 1014.7
20260507032733 77 0 0.0 0.0 0.00 0.00 0.00 23 1014.7
20260507032116 78 0 0.0 0.0 0.00 0.00 0.00 22 1014.5
20260507031455 79 0 1.0 3.0 0.00 0.00 0.00 22 1014.4
20260507031138 79 0 1.0 3.0 0.00 0.00 0.00 22 1014.4
20260507030817 79 0 1.0 3.0 0.00 0.00 0.00 22 1014.3
20260507030459 79 0 1.0 3.0 0.00 0.00 0.00 22 1014.4
20260507025843 79 0 0.0 4.0 0.00 0.00 0.00 21 1014.2
20260507025519 80 0 1.0 4.0 0.00 0.00 0.00 21 1014.2
20260507025204 80 0 1.0 5.0 0.00 0.00 0.00 21 1014.1
20260507024546 80 0 2.0 5.0 0.00 0.00 0.00 21 1014.1
20260507023930 80 0 2.0 5.0 0.00 0.00 0.00 21 1014.0
20260507023612 80 0 2.0 5.0 0.00 0.00 0.00 21 1013.9
20260507022951 80 0 1.0 4.0 0.00 0.00 0.00 21 1013.9
20260507022632 80 0 2.0 4.0 0.00 0.00 0.00 21 1013.9
20260507021709 81 0 1.0 5.0 0.00 0.00 0.00 21 1013.8
20260507021354 81 0 1.0 5.0 0.00 0.00 0.00 20 1013.7
20260507021036 81 0 2.0 5.0 0.00 0.00 0.00 20 1013.7
20260507020712 81 0 2.0 6.0 0.00 0.00 0.00 20 1013.8
20260507020056 81 0 3.0 6.0 0.00 0.00 0.00 20 1013.7
20260507015738 81 0 3.0 6.0 0.00 0.00 0.00 20 1013.7
20260507015416 82 123 2.0 6.0 0.00 0.00 0.00 20 1013.7
20260507015053 82 159 2.0 6.0 0.00 0.00 0.00 20 1013.8
20260507014738 82 126 2.0 6.0 0.00 0.00 0.00 20 1013.7
20260507014413 82 171 2.0 6.0 0.00 0.00 0.00 20 1013.7
20260507014058 82 120 2.0 6.0 0.00 0.00 0.00 20 1013.7
20260507013431 82 156 2.0 8.0 0.00 0.00 0.00 20 1013.7
20260507013111 82 131 3.0 8.0 0.00 0.00 0.00 20 1013.7
20260507012750 82 200 3.0 8.0 0.00 0.00 0.00 20 1013.7
20260507012431 82 155 3.0 8.0 0.00 0.00 0.00 20 1013.7
20260507011809 82 171 3.0 7.0 0.00 0.00 0.00 19 1013.7
20260507011453 82 138 2.0 7.0 0.00 0.00 0.00 19 1013.8
20260507010811 83 189 1.0 9.0 0.00 0.00 0.00 19 1013.8
20260507010453 83 263 2.0 9.0 0.00 0.00 0.00 19 1013.8
20260507010137 83 186 3.0 9.0 0.00 0.00 0.00 19 1013.8
20260507005811 83 176 3.0 9.0 0.00 0.00 0.00 19 1013.9
20260507005456 83 150 3.0 9.0 0.00 0.00 0.00 19 1013.8
20260507005133 83 165 3.0 8.0 0.00 0.00 0.00 19 1013.9
20260507004814 83 193 2.0 7.0 0.00 0.00 0.00 20 1013.9
20260507004451 83 92 2.0 8.0 0.00 0.00 0.00 20 1013.9
20260507003832 83 193 3.0 8.0 0.00 0.00 0.00 20 1014.0
20260507003517 83 150 4.0 12.0 0.00 0.00 0.00 19 1013.9
20260507003155 83 137 4.0 12.0 0.00 0.00 0.00 19 1014.0
20260507002834 84 127 4.0 12.0 0.00 0.00 0.00 20 1013.9
20260507002515 84 121 5.0 12.0 0.00 0.00 0.00 19 1013.9
20260507001900 84 163 5.0 12.0 0.00 0.00 0.00 19 1013.9
20260507001537 84 159 4.0 11.0 0.00 0.00 0.00 20 1013.9
20260507001223 84 175 3.0 10.0 0.00 0.00 0.00 19 1013.8
20260507000900 85 132 4.0 10.0 0.00 0.00 0.00 19 1013.9
20260507000542 85 151 5.0 10.0 0.00 0.00 0.00 20 1013.9
20260507000226 85 102 5.0 10.0 0.00 0.00 0.00 19 1013.9
20260506235903 85 132 4.0 9.0 0.00 0.00 0.00 19 1013.9
20260506235547 85 155 2.0 9.0 0.00 0.00 0.00 19 1013.9
20260506235231 84 144 2.0 6.0 0.00 0.00 0.00 19 1013.9
20260506234913 84 167 2.0 8.0 0.00 0.00 0.00 19 1013.9
20260506234557 84 159 2.0 8.0 0.00 0.00 0.00 19 1014.0
20260506234239 84 199 2.0 8.0 0.00 0.00 0.00 19 1014.0
20260506233918 84 200 3.0 12.0 0.00 0.00 0.00 19 1014.0
20260506233604 84 278 4.0 12.0 0.00 0.00 0.00 20 1014.0
20260506233240 84 204 4.0 12.0 0.00 0.00 0.00 19 1014.1
20260506232625 85 161 5.0 12.0 0.00 0.00 0.00 19 1014.1
20260506232300 85 238 5.0 12.0 0.00 0.00 0.00 19 1014.2
20260506231336 84 161 4.0 9.0 0.00 0.00 0.00 20 1014.3
20260506231014 83 126 3.0 15.0 0.00 0.00 0.00 20 1014.4
20260506230659 83 88 3.0 15.0 0.00 0.00 0.00 20 1014.4
20260506230343 83 196 3.0 15.0 0.00 0.00 0.00 19 1014.5
20260506230025 84 198 5.0 15.0 0.00 0.00 0.00 19 1014.5
20260506225709 84 159 5.0 15.0 0.00 0.00 0.00 19 1014.5
20260506225344 85 162 6.0 15.0 0.00 0.00 0.00 20 1014.5
20260506225024 85 154 5.0 13.0 0.00 0.00 0.00 21 1014.5
20260506224700 85 105 6.0 13.0 0.00 0.00 0.00 22 1014.6
20260506224336 84 138 5.0 13.0 0.00 0.00 0.00 20 1014.6
20260506224017 84 220 6.0 13.0 0.00 0.00 0.00 20 1014.5
20260506223658 85 203 5.0 13.0 0.00 0.00 0.00 23 1014.7
20260506223338 85 178 5.0 13.0 0.00 0.00 0.00 19 1014.8
20260506223016 85 150 4.0 9.0 0.00 0.00 0.00 20 1014.8
20260506222653 86 271 5.0 9.0 0.00 0.00 0.00 20 1014.9
20260506222335 86 69 3.0 9.0 0.00 0.00 0.00 20 1014.9
20260506222011 86 114 3.0 9.0 0.00 0.00 0.00 21 1015.1
20260506221653 85 103 3.0 9.0 0.00 0.00 0.00 21 1015.1
20260506221338 85 310 4.0 9.0 0.00 0.00 0.00 19 1015.1
20260506221019 85 322 4.0 9.0 0.00 0.00 0.00 19 1015.2
20260506220659 85 101 3.0 8.0 0.00 0.00 0.00 23 1015.1
20260506220344 84 135 3.0 8.0 0.00 0.00 0.00 20 1015.2
20260506220022 84 103 3.0 11.0 0.00 0.00 0.00 20 1015.2
20260506215701 85 124 5.0 11.0 0.00 0.00 0.00 22 1015.3
20260506215335 86 103 6.0 11.0 0.00 0.00 0.00 19 1015.4
20260506215017 86 99 5.0 11.0 0.00 0.00 0.00 22 1015.5
20260506214655 85 134 3.0 11.0 0.00 0.00 0.00 22 1015.5
20260506214333 84 136 3.0 11.0 0.00 0.00 0.00 21 1015.6
20260506214011 84 355 4.0 14.0 0.00 0.00 0.00 21 1015.6
20260506213652 85 165 5.0 14.0 0.00 0.00 0.00 20 1015.7
20260506213335 85 82 6.0 14.0 0.00 0.00 0.00 22 1015.7
20260506213015 85 96 5.0 16.0 0.00 0.00 0.00 21 1015.8
20260506212657 85 90 6.0 16.0 0.00 0.00 0.00 23 1015.9
20260506212040 85 117 7.0 16.0 0.00 0.00 0.00 20 1016.0
20260506211718 85 158 6.0 16.0 0.00 0.00 0.00 20 1016.0
20260506211358 85 136 6.0 16.0 0.00 0.00 0.00 21 1016.1
20260506211035 85 136 4.0 11.0 0.00 0.00 0.00 21 1016.1
20260506210714 85 92 4.0 10.0 0.00 0.00 0.00 23 1016.0
20260506210057 84 71 4.0 13.0 0.00 0.00 0.00 23 1016.2
20260506205435 84 93 5.0 13.0 0.00 0.00 0.00 23 1016.2
20260506205111 85 239 5.0 13.0 0.00 0.00 0.00 23 1016.3
20260506204753 84 140 5.0 13.0 0.00 0.00 0.00 21 1016.4
20260506204432 84 103 3.0 11.0 0.00 0.00 0.00 23 1016.4
20260506204113 83 165 3.0 11.0 0.00 0.00 0.00 21 1016.4
20260506203755 84 158 4.0 11.0 0.00 0.00 0.00 21 1016.4
20260506203141 85 59 5.0 11.0 0.00 0.00 0.00 21 1016.5
20260506202819 85 100 5.0 11.0 0.00 0.00 0.00 23 1016.4
20260506202454 84 92 5.0 9.0 0.00 0.00 0.00 25 1016.5
20260506202138 83 155 4.0 11.0 0.00 0.00 0.00 24 1016.5
20260506201821 83 173 3.0 11.0 0.00 0.00 0.00 22 1016.5
20260506201455 84 146 3.0 11.0 0.00 0.00 0.00 22 1016.5
20260506201137 84 51 3.0 11.0 0.00 0.00 0.00 24 1016.5
20260506200816 84 77 5.0 11.0 0.00 0.00 0.00 24 1016.5
20260506200500 84 112 5.0 11.0 0.00 0.00 0.00 22 1016.6
20260506200142 84 42 5.0 10.0 0.00 0.00 0.00 24 1016.6
20260506195526 83 113 3.0 12.0 0.00 0.00 0.00 25 1016.7
20260506195202 83 114 4.0 12.0 0.00 0.00 0.00 24 1016.7
20260506194846 82 113 5.0 12.0 0.00 0.00 0.00 23 1016.7
20260506194520 83 122 4.0 12.0 0.00 0.00 0.00 22 1016.7
20260506194158 83 140 3.0 12.0 0.00 0.00 0.00 26 1016.8
20260506193834 83 65 2.0 9.0 0.00 0.00 0.00 24 1016.9
20260506193519 83 186 2.0 9.0 0.00 0.00 0.00 23 1016.9
20260506193203 82 79 2.0 9.0 0.00 0.00 0.00 23 1016.9
20260506192844 81 136 3.0 9.0 0.00 0.00 0.00 22 1017.0
20260506192524 82 59 3.0 9.0 0.00 0.00 0.00 22 1017.0
20260506192208 83 67 2.0 9.0 0.00 0.00 0.00 24 1017.1
20260506191842 83 86 1.0 8.0 0.00 0.00 0.00 24 1017.1
20260506191524 81 86 2.0 8.0 0.00 0.00 0.00 23 1017.1
20260506191206 82 331 3.0 8.0 0.00 0.00 0.00 24 1017.2
20260506190841 81 123 3.0 9.0 0.00 0.00 0.00 27 1017.3
20260506185918 79 111 1.0 10.0 0.00 0.00 0.00 25 1017.4
20260506185556 79 282 2.0 10.0 0.00 0.00 0.00 25 1017.4
20260506185239 79 111 3.0 10.0 0.00 0.00 0.00 24 1017.5
20260506184916 79 155 4.0 10.0 0.00 0.00 0.00 28 1017.5
20260506184557 79 183 4.0 10.0 0.00 0.00 0.00 24 1017.5
20260506184242 80 152 4.0 10.0 0.00 0.00 0.00 24 1017.6
20260506183926 81 157 4.0 10.0 0.00 0.00 0.00 26 1017.5
20260506183606 80 122 3.0 9.0 0.00 0.00 0.00 24 1017.5
20260506183239 78 167 3.0 7.0 0.00 0.00 0.00 25 1017.6
20260506182613 79 121 3.0 7.0 0.00 0.00 0.00 25 1017.5
20260506182253 78 133 2.0 7.0 0.00 0.00 0.00 27 1017.5
20260506181932 78 209 2.0 7.0 0.00 0.00 0.00 24 1017.6
20260506181307 79 105 3.0 7.0 0.00 0.00 0.00 25 1017.6
20260506180949 79 57 3.0 8.0 0.00 0.00 0.00 27 1017.6
20260506180628 79 30 3.0 8.0 0.00 0.00 0.00 26 1017.6
20260506180310 78 156 2.0 8.0 0.00 0.00 0.00 26 1017.6
20260506175952 77 147 3.0 8.0 0.00 0.00 0.00 25 1017.6
20260506175633 77 121 3.0 8.0 0.00 0.00 0.00 26 1017.5
20260506175307 78 153 3.0 8.0 0.00 0.00 0.00 26 1017.6
20260506174645 78 13 2.0 6.0 0.00 0.00 0.00 28 1017.6
20260506174020 77 65 1.0 6.0 0.00 0.00 0.00 29 1017.6
20260506173658 78 118 1.0 6.0 0.00 0.00 0.00 27 1017.6
20260506173043 77 105 2.0 6.0 0.00 0.00 0.00 28 1017.6
20260506172727 77 82 2.0 6.0 0.00 0.00 0.00 28 1017.6
20260506172408 76 20 2.0 6.0 0.00 0.00 0.00 29 1017.7
20260506172047 76 151 1.0 5.0 0.00 0.00 0.00 29 1017.6
20260506171723 76 77 1.0 7.0 0.00 0.00 0.00 27 1017.6
20260506171357 75 38 2.0 7.0 0.00 0.00 0.00 27 1017.6
20260506171036 76 36 2.0 7.0 0.00 0.00 0.00 28 1017.6
20260506170719 76 113 2.0 7.0 0.00 0.00 0.00 27 1017.5
20260506165754 74 94 1.0 6.0 0.00 0.00 0.00 28 1017.5
20260506165440 75 165 1.0 6.0 0.00 0.00 0.00 28 1017.6
20260506165118 75 75 1.0 5.0 0.00 0.00 0.00 31 1017.5
20260506164500 74 113 1.0 5.0 0.00 0.00 0.00 28 1017.5
20260506163842 74 259 2.0 5.0 0.00 0.00 0.00 27 1017.5
20260506163526 74 300 1.0 5.0 0.00 0.00 0.00 28 1017.5
20260506163210 74 21 1.0 5.0 0.00 0.00 0.00 28 1017.4
20260506162851 73 69 1.0 5.0 0.00 0.00 0.00 30 1017.4
20260506162536 73 80 1.0 5.0 0.00 0.00 0.00 29 1017.4
20260506162218 72 42 1.0 3.0 0.00 0.00 0.00 30 1017.4
20260506160700 72 355 0.0 5.0 0.00 0.00 0.00 32 1017.4
20260506160335 71 53 0.0 5.0 0.00 0.00 0.00 31 1017.4
20260506160012 71 17 0.0 5.0 0.00 0.00 0.00 30 1017.4
20260506155650 70 129 1.0 5.0 0.00 0.00 0.00 29 1017.4
20260506154729 70 30 0.0 3.0 0.00 0.00 0.00 30 1017.4
20260506153813 69 62 0.0 2.0 0.00 0.00 0.00 31 1017.3
20260506153447 69 58 0.0 3.0 0.00 0.00 0.00 31 1017.2
20260506153130 69 87 1.0 3.0 0.00 0.00 0.00 31 1017.2
20260506152813 69 5 1.0 3.0 0.00 0.00 0.00 30 1017.1
20260506152458 69 0 1.0 3.0 0.00 0.00 0.00 31 1017.1
20260506152139 68 74 1.0 3.0 0.00 0.00 0.00 32 1017.1
20260506151813 68 95 0.0 3.0 0.00 0.00 0.00 34 1017.1
20260506151456 68 105 0.0 3.0 0.00 0.00 0.00 34 1017.1
20260506150839 66 57 1.0 3.0 0.00 0.00 0.00 35 1017.1
20260506150516 66 0 1.0 3.0 0.00 0.00 0.00 35 1017.2
20260506150151 65 0 1.0 3.0 0.00 0.00 0.00 36 1017.1
20260506145829 65 0 1.0 3.0 0.00 0.00 0.00 38 1017.1
20260506145509 64 0 1.0 3.0 0.00 0.00 0.00 38 1017.0
20260506145150 62 0 1.0 3.0 0.00 0.00 0.00 38 1017.1
20260506144831 62 0 1.0 3.0 0.00 0.00 0.00 40 1017.1
20260506144507 61 0 1.0 3.0 0.00 0.00 0.00 41 1017.1
20260506144150 61 0 0.0 3.0 0.00 0.00 0.00 41 1017.0
20260506143828 60 0 0.0 3.0 0.00 0.00 0.00 42 1017.0
20260506143505 60 0 1.0 4.0 0.00 0.00 0.00 42 1016.9
20260506143147 59 0 1.0 4.0 0.00 0.00 0.00 43 1016.8
20260506142829 58 0 1.0 4.0 0.00 0.00 0.00 44 1016.7
20260506142513 58 0 1.0 4.0 0.00 0.00 0.00 44 1016.8
20260506142151 58 0 1.0 4.0 0.00 0.00 0.00 46 1016.8
20260506141832 57 0 1.0 4.0 0.00 0.00 0.00 46 1016.8
20260506141507 57 0 1.0 2.0 0.00 0.00 0.00 47 1016.7
20260506141150 56 0 0.0 2.0 0.00 0.00 0.00 48 1016.8
20260506140824 56 0 0.0 1.0 0.00 0.00 0.00 48 1016.7
20260506140506 56 0 0.0 1.0 0.00 0.00 0.00 50 1016.5
20260506140147 56 0 0.0 0.0 0.00 0.00 0.00 50 1016.6
20260506135825 55 0 0.0 2.0 0.00 0.00 0.00 51 1016.6
20260506135502 55 0 0.0 1.0 0.00 0.00 0.00 51 1016.4
20260506135140 55 0 0.0 1.0 0.00 0.00 0.00 52 1016.5
20260506134516 55 0 0.0 0.0 0.00 0.00 0.00 53 1016.3
20260506133859 54 0 0.0 0.0 0.00 0.00 0.00 52 1016.2
20260506133541 54 0 0.0 0.0 0.00 0.00 0.00 52 1016.2
20260506133223 54 0 0.0 0.0 0.00 0.00 0.00 51 1016.2
20260506132906 54 0 0.0 0.0 0.00 0.00 0.00 51 1016.1
20260506132543 54 0 0.0 0.0 0.00 0.00 0.00 52 1016.1
20260506132219 54 0 0.0 0.0 0.00 0.00 0.00 52 1016.0
20260506131857 54 0 0.0 1.0 0.00 0.00 0.00 52 1015.9
20260506131537 54 0 0.0 1.0 0.00 0.00 0.00 51 1015.9
20260506131220 55 36 0.0 1.0 0.00 0.00 0.00 50 1015.9
20260506130901 55 270 0.0 0.0 0.00 0.00 0.00 49 1015.9
20260506130246 55 270 0.0 0.0 0.00 0.00 0.00 49 1015.8
20260506125921 55 270 0.0 0.0 0.00 0.00 0.00 48 1015.8
20260506125004 55 270 0.0 0.0 0.00 0.00 0.00 48 1015.6
20260506124641 55 270 0.0 0.0 0.00 0.00 0.00 48 1015.6
20260506124325 55 269 0.0 2.0 0.00 0.00 0.00 48 1015.5
20260506124002 55 269 0.0 2.0 0.00 0.00 0.00 48 1015.4
20260506123646 56 269 0.0 1.0 0.00 0.00 0.00 48 1015.3
20260506123326 56 269 0.0 1.0 0.00 0.00 0.00 48 1015.3
20260506123008 56 269 0.0 0.0 0.00 0.00 0.00 48 1015.2
20260506122649 56 269 0.0 1.0 0.00 0.00 0.00 48 1015.3
20260506122329 56 286 0.0 0.0 0.00 0.00 0.00 48 1015.2
20260506122014 56 286 0.0 0.0 0.00 0.00 0.00 48 1015.2
20260506121355 56 286 0.0 2.0 0.00 0.00 0.00 47 1015.1
20260506121036 56 246 0.0 2.0 0.00 0.00 0.00 47 1015.0
20260506120718 56 217 0.0 2.0 0.00 0.00 0.00 47 1015.0
20260506120404 56 269 0.0 1.0 0.00 0.00 0.00 47 1015.0
20260506120048 56 332 0.0 2.0 0.00 0.00 0.00 47 1015.0
20260506115422 56 332 0.0 2.0 0.00 0.00 0.00 47 1015.0
20260506115057 56 180 0.0 1.0 0.00 0.00 0.00 47 1014.9
20260506114738 56 250 0.0 1.0 0.00 0.00 0.00 47 1015.0
20260506114422 56 178 0.0 1.0 0.00 0.00 0.00 47 1014.9
20260506114101 56 178 0.0 1.0 0.00 0.00 0.00 46 1014.7
20260506113746 56 311 0.0 0.0 0.00 0.00 0.00 46 1014.8
20260506113429 56 311 0.0 0.0 0.00 0.00 0.00 46 1014.7
20260506112805 57 311 0.0 0.0 0.00 0.00 0.00 45 1014.6
20260506112143 57 316 0.0 1.0 0.00 0.00 0.00 45 1014.7
20260506110922 57 317 0.0 1.0 0.00 0.00 0.00 45 1014.7
20260506110606 57 222 0.0 0.0 0.00 0.00 0.00 44 1014.7
20260506110244 57 222 0.0 2.0 0.00 0.00 0.00 44 1014.6
20260506105630 57 219 0.0 2.0 0.00 0.00 0.00 44 1014.5
20260506105305 57 212 0.0 2.0 0.00 0.00 0.00 44 1014.5
20260506104949 57 216 0.0 2.0 0.00 0.00 0.00 44 1014.5
20260506104630 57 215 0.0 2.0 0.00 0.00 0.00 44 1014.4
20260506104306 57 228 0.0 2.0 0.00 0.00 0.00 44 1014.4
20260506103948 57 236 0.0 2.0 0.00 0.00 0.00 44 1014.3
20260506103625 57 173 0.0 2.0 0.00 0.00 0.00 44 1014.2
20260506103307 57 307 0.0 2.0 0.00 0.00 0.00 44 1014.1
20260506102640 57 226 0.0 1.0 0.00 0.00 0.00 44 1014.1
20260506102317 57 226 0.0 1.0 0.00 0.00 0.00 44 1014.1
20260506101954 57 226 0.0 1.0 0.00 0.00 0.00 44 1014.1
20260506101632 57 226 0.0 0.0 0.00 0.00 0.00 44 1014.1
20260506101314 57 226 0.0 0.0 0.00 0.00 0.00 44 1014.1
20260506100957 57 226 0.0 0.0 0.00 0.00 0.00 44 1014.0
20260506100638 58 226 0.0 0.0 0.00 0.00 0.00 44 1014.0
20260506100319 58 225 0.0 0.0 0.00 0.00 0.00 44 1013.9
20260506100003 58 225 0.0 0.0 0.00 0.00 0.00 43 1013.8
20260506095645 58 225 0.0 0.0 0.00 0.00 0.00 43 1013.8